Regional Weather Roundup
Issued by NWS

Home | Current Version | Previous Version | Text Only | Print | Product List | Glossary On
Versions: 1 2 3 4 5 6 7 8 9 10 11 12 13 14 15 16 17 18 19 20 21 22 23 24 25 26 27 28 29 30 31 32 33 34 35 36 37 38 39 40 41 42 43 44 45 46 47 48 49 50
000
ASUS43 KLSX 050907
RWRMO

WEATHER SUMMARY FOR MISSOURI
NATIONAL WEATHER SERVICE SPRINGFIELD MO
300 AM CST THU MAR 05 2015

NOTE: "FAIR" INDICATES FEW OR NO CLOUDS BELOW 12,000 FEET WITH NO
       SIGNIFICANT WEATHER AND/OR OBSTRUCTIONS TO VISIBILITY.
       CURRENT SKY AND/OR WEATHER CONDITIONS ARE NOT AVAILABLE FOR
       CHILLICOTHE AND FARMINGTON.

MOZ001>031-035>038-043-044-053-054-051000-
...NORTHERN AND WESTERN MISSOURI...

CITY           SKY/WX    TMP DP  RH WIND       PRES   REMARKS
KANSAS CTY INT CLEAR     10   2  69 N8        30.45S WCI  -2
KANSAS C DTWN  CLEAR     17   0  47 N10       30.49R WCI   5
LEE`S SUMMIT   CLEAR     16   0  49 N15       30.46R WCI   1
ST JOSEPH      CLEAR      7   0  73 N5        30.50S WCI  -2
CHILLICOTHE      N/A     15   3  59 N5        30.47S WCI   8

$$
MOZ066>068-077>081-088>096-101>105-051000-
...SOUTHWEST MISSOURI...

CITY           SKY/WX    TMP DP  RH WIND       PRES   REMARKS
SPRINGFIELD    CLOUDY    21  10  62 N7        30.38R WCI  12
JOPLIN         PTCLDY    20  11  68 CALM      30.43R

$$
MOZ032>034-039>042-045>050-055>058-069>072-051000-
...CENTRAL MISSOURI...

CITY           SKY/WX    TMP DP  RH WIND       PRES   REMARKS
COLUMBIA       CLOUDY    20   9  62 N10       30.39R WCI   9
JEFFERSON CITY CLOUDY    21  10  62 NW5       30.42R WCI  15
ROLLA          CLOUDY    20   6  55 N5        30.33F WCI  13
SEDALIA        PTCLDY    20   7  57 N13       30.42S WCI   7
WHITEMAN AFB   PTCLDY    17   6  61 N10       30.42S WCI   5
WARRENSBURG    PTCLDY    19   9  63 N7        30.45R WCI  10
OSAGE BEACH    CLOUDY    21   9  58 CALM      30.39R

$$
MOZ051-052-059>065-051000-
...EAST CENTRAL MISSOURI...

CITY           SKY/WX    TMP DP  RH WIND       PRES   REMARKS
ST LOUIS INTL  MOCLDY    21   5  50 N6        30.40F WCI  13
SPIRIT OF STL  PTCLDY    20   5  52 CALM      30.40S
ST CHARLES     PTCLDY    18   5  57 N5        30.41F WCI  11

$$
MOZ072>076-082>087-097>100-106>115-051000-
...SOUTH CENTRAL AND SOUTHEAST MISSOURI...

CITY           SKY/WX    TMP DP  RH WIND       PRES   REMARKS
CAPE GIRARDEAU CLOUDY    21  10  62 N16       30.34R WCI   7
FARMINGTON     MOCLDY    19   7  58 N7        30.36F WCI  10
POPLAR BLUFF   CLOUDY    22   8  55 N14       30.35F WCI   9
WEST PLAINS    CLOUDY    20   7  57 N7        30.35R WCI  11

$$


USA.gov is the U.S. government's official web portal to all federal, state and local government web resources and services.